Hourly Data Report for October 19, 2016

All times are specified in Local Standard Time (LST). Add 1 hour to adjust for Daylight Saving Time where and when it is observed.

TORONTO INTL A
ONTARIO

43°40'36.000" N
79°37'50.000" W
173.40 m
6158731
71624
YYZ

Download Data

Hourly Data (October 2016)
Hourly Data Report for October 19, 2016
Temp Definition
°C
Dew Point Temp Definition
°C
Rel Hum Definition
%
Wind Dir Definition
10's deg

Wind Spd Definition
km/h
Visibility Definition
km
Stn Press Definition
kPa
Hmdx Definition


Wind Chill Definition


Weather Definition


TIME
00:00 Legend Double Dagger 13.1 10.5 84 29 12 24.1 99.04     LegendNANA
01:00 Legend Double Dagger 12.5 10.1 85 29 10 24.1 99.12     Clear
02:00 Legend Double Dagger 12.3 10.2 87 28 13 24.1 99.22     LegendNANA
03:00 Legend Double Dagger 12.3 10.6 89 27 7 24.1 99.30     LegendNANA
04:00 Legend Double Dagger 11.6 10.2 91 25 8 24.1 99.37     Clear
05:00 Legend Double Dagger 10.6 9.2 91 26 11 24.1 99.45     LegendNANA
06:00 Legend Double Dagger 11.1 9.2 88 27 10 24.1 99.52     LegendNANA
07:00 Legend Double Dagger 11.1 9.4 89 24 13 24.1 99.61     Clear
08:00 Legend Double Dagger 13.0 10.4 84 26 13 24.1 99.71     LegendNANA
09:00 Legend Double Dagger 14.7 10.2 74 27 13 24.1 99.78     LegendNANA
10:00 Legend Double Dagger 16.1 10.5 69 27 4 24.1 99.80     Clear
11:00 Legend Double Dagger 17.7 9.7 59 32 14 24.1 99.82     LegendNANA
12:00 Legend Double Dagger 18.9 9.5 54 27 10 24.1 99.84     LegendNANA
13:00 Legend Double Dagger 20.0 8.8 48 22 8 24.1 99.79     Clear
14:00 Legend Double Dagger 20.6 7.4 42 26 10 24.1 99.78     LegendNANA
15:00 Legend Double Dagger 20.1 9.2 49 17 7 24.1 99.80     LegendNANA
16:00 Legend Double Dagger 19.9 9.9 52 17 15 24.1 99.82     Mainly Clear
17:00 Legend Double Dagger 18.1 10.3 60 16 10 24.1 99.83     LegendNANA
18:00 Legend Double Dagger 17.1 11.0 67 16 12 24.1 99.83     LegendNANA
19:00 Legend Double Dagger 16.7 11.7 72 19 10 24.1 99.91     Mainly Clear
20:00 Legend Double Dagger 16.9 11.5 70 22 12 24.1 99.94     LegendNANA
21:00 Legend Double Dagger 16.2 11.0 71 21 9 24.1 99.95     LegendNANA
22:00 Legend Double Dagger 15.8 11.0 73 36 1 24.1 99.97     Mainly Clear
23:00 Legend Double Dagger 15.2 11.2 77 30 5 24.1 99.90     LegendNANA

Notes on Data Quality.

Legend

  • E = Estimated
  • M = Missing
  • NA = Not Available
  • ‡ = Partner data that is not subject to review by the National Climate Archives
Date modified: